| time (UTC) | temp F | wind direction | speed MPH | gust MPH | rain 1hr in | rain 24hr in | rain mn in | humidity % | barometer mb |
| 20260510190020 | 66 | 300 | 3.0 | 18.0 | 0.00 | 0.05 | 0.00 | 100 | |
| 20260510185520 | 69 | 288 | 2.0 | 5.0 | 0.00 | 0.05 | 0.00 | 100 | |
| 20260510185020 | 68 | 312 | 0.0 | 9.0 | 0.00 | 0.05 | 0.00 | 100 | |
| 20260510184520 | 66 | 63 | 2.0 | 6.0 | 0.00 | 0.05 | 0.00 | 100 | |
| 20260510184020 | 68 | 247 | 3.0 | 4.0 | 0.00 | 0.05 | 0.00 | 100 | |
| 20260510183520 | 65 | 315 | 2.0 | 14.0 | 0.00 | 0.05 | 0.00 | 100 | |
| 20260510183020 | 66 | 333 | 0.0 | 6.0 | 0.00 | 0.05 | 0.00 | 100 | |
| 20260510182520 | 64 | 32 | 2.0 | 6.0 | 0.00 | 0.05 | 0.00 | 100 | |
| 20260510182020 | 66 | 61 | 2.0 | 6.0 | 0.00 | 0.05 | 0.00 | 100 | |
| 20260510181520 | 68 | 272 | 0.0 | 12.0 | 0.00 | 0.05 | 0.00 | 100 | |
| 20260510181020 | 68 | 347 | 1.0 | 6.0 | 0.00 | 0.05 | 0.00 | 100 | |
| 20260510180520 | 66 | 295 | 1.0 | 7.0 | 0.00 | 0.05 | 0.00 | 100 | |
| 20260510180020 | 63 | 251 | 4.0 | 9.0 | 0.00 | 0.05 | 0.05 | 100 | |
| 20260510175520 | 63 | 11 | 1.0 | 8.0 | 0.00 | 0.05 | 0.05 | 100 | |
| 20260510175020 | 65 | 271 | 1.0 | 11.0 | 0.00 | 0.05 | 0.05 | 100 | |
| 20260510174520 | 67 | 237 | 7.0 | 17.0 | 0.00 | 0.05 | 0.05 | 100 | |
| 20260510174020 | 66 | 253 | 5.0 | 7.0 | 0.00 | 0.05 | 0.05 | 100 | |
| 20260510173520 | 61 | 95 | 4.0 | 9.0 | 0.00 | 0.05 | 0.05 | 100 | |
| 20260510173020 | 63 | 285 | 0.0 | 2.0 | 0.00 | 0.05 | 0.05 | 100 | |
| 20260510172520 | 62 | 29 | 0.0 | 5.0 | 0.00 | 0.05 | 0.05 | 100 | |
| 20260510172020 | 63 | 73 | 3.0 | 4.0 | 0.00 | 0.05 | 0.05 | 100 | |
| 20260510171520 | 61 | 98 | 2.0 | 13.0 | 0.00 | 0.05 | 0.05 | 100 | |
| 20260510171020 | 63 | 71 | 5.0 | 5.0 | 0.00 | 0.05 | 0.05 | 100 | |
| 20260510170520 | 62 | 1 | 1.0 | 11.0 | 0.00 | 0.05 | 0.05 | 100 | |
| 20260510170020 | 60 | 244 | 2.0 | 14.0 | 0.00 | 0.05 | 0.05 | 100 | |
| 20260510165520 | 59 | 32 | 5.0 | 9.0 | 0.00 | 0.05 | 0.05 | 100 | |
| 20260510165020 | 61 | 250 | 0.0 | 13.0 | 0.00 | 0.05 | 0.05 | 100 | |
| 20260510164520 | 59 | 54 | 12.0 | 12.0 | 0.00 | 0.05 | 0.05 | 100 | |
| 20260510164021 | 61 | 265 | 2.0 | 7.0 | 0.00 | 0.05 | 0.05 | 100 | |
| 20260510163521 | 59 | 241 | 0.0 | 12.0 | 0.00 | 0.05 | 0.05 | 100 | |
| 20260510163021 | 58 | 61 | 12.0 | 14.0 | 0.00 | 0.05 | 0.05 | 100 | |
| 20260510162521 | 59 | 57 | 8.0 | 8.0 | 0.00 | 0.05 | 0.05 | 100 | |
| 20260510162021 | 59 | 53 | 6.0 | 10.0 | 0.00 | 0.05 | 0.05 | 100 | |
| 20260510161521 | 57 | 70 | 8.0 | 10.0 | 0.00 | 0.05 | 0.05 | 100 | |
| 20260510161021 | 59 | 8 | 1.0 | 9.0 | 0.00 | 0.05 | 0.05 | 100 | |
| 20260510160521 | 60 | 338 | 1.0 | 4.0 | 0.00 | 0.05 | 0.05 | 100 | |
| 20260510160021 | 58 | 84 | 4.0 | 7.0 | 0.00 | 0.05 | 0.05 | 100 | |
| 20260510155521 | 58 | 59 | 1.0 | 8.0 | 0.00 | 0.05 | 0.05 | 100 | |
| 20260510155021 | 60 | 260 | 5.0 | 7.0 | 0.00 | 0.05 | 0.05 | 100 | |
| 20260510154521 | 60 | 85 | 3.0 | 8.0 | 0.00 | 0.05 | 0.05 | 100 | |
| 20260510154021 | 59 | 52 | 3.0 | 6.0 | 0.00 | 0.05 | 0.05 | 100 | |
| 20260510153521 | 61 | 303 | 3.0 | 3.0 | 0.00 | 0.05 | 0.05 | 100 | |
| 20260510153021 | 61 | 240 | 0.0 | 3.0 | 0.00 | 0.05 | 0.05 | 100 | |
| 20260510152521 | 59 | 257 | 3.0 | 5.0 | 0.00 | 0.05 | 0.05 | 100 | |
| 20260510152021 | 59 | 78 | 5.0 | 6.0 | 0.00 | 0.05 | 0.05 | 100 | |
| 20260510151521 | 60 | 296 | 0.0 | 4.0 | 0.00 | 0.05 | 0.05 | 100 | |
| 20260510151021 | 61 | 29 | 3.0 | 7.0 | 0.00 | 0.05 | 0.05 | 100 | |
| 20260510150521 | 61 | 251 | 6.0 | 7.0 | 0.00 | 0.05 | 0.05 | 100 | |
| 20260510150021 | 62 | 303 | 0.0 | 5.0 | 0.00 | 0.05 | 0.05 | 100 | |
| 20260510145521 | 59 | 7 | 0.0 | 6.0 | 0.00 | 0.05 | 0.05 | 100 | |
| 20260510145021 | 59 | 340 | 1.0 | 6.0 | 0.00 | 0.05 | 0.05 | 100 | |
| 20260510144521 | 61 | 286 | 3.0 | 3.0 | 0.00 | 0.05 | 0.05 | 100 | |
| 20260510144021 | 61 | 309 | 0.0 | 1.0 | 0.00 | 0.05 | 0.05 | 100 | |
| 20260510143521 | 61 | 309 | 1.0 | 4.0 | 0.00 | 0.05 | 0.05 | 100 | |
| 20260510143021 | 61 | 327 | 0.0 | 4.0 | 0.00 | 0.05 | 0.05 | 100 | |
| 20260510142521 | 59 | 64 | 0.0 | 7.0 | 0.00 | 0.05 | 0.05 | 100 | |
| 20260510142021 | 59 | 191 | 0.0 | 5.0 | 0.00 | 0.05 | 0.05 | 100 | |
| 20260510141521 | 60 | 278 | 5.0 | 8.0 | 0.00 | 0.05 | 0.05 | 100 | |
| 20260510141021 | 59 | 226 | 5.0 | 5.0 | 0.00 | 0.05 | 0.05 | 100 | |
| 20260510140521 | 58 | 358 | 1.0 | 4.0 | 0.00 | 0.05 | 0.05 | 100 | |
| 20260510140021 | 57 | 50 | 2.0 | 4.0 | 0.00 | 0.05 | 0.05 | 100 | |
| 20260510135521 | 59 | 236 | 0.0 | 4.0 | 0.00 | 0.05 | 0.05 | 100 | |
| 20260510135021 | 56 | 358 | 2.0 | 6.0 | 0.00 | 0.05 | 0.05 | 100 | |
| 20260510134521 | 60 | 247 | 0.0 | 2.0 | 0.00 | 0.05 | 0.05 | 100 | |
| 20260510134021 | 60 | 239 | 0.0 | 4.0 | 0.00 | 0.05 | 0.05 | 100 | |
| 20260510133521 | 58 | 63 | 0.0 | 2.0 | 0.00 | 0.05 | 0.05 | 100 | |
| 20260510133021 | 61 | 271 | 2.0 | 4.0 | 0.00 | 0.05 | 0.05 | 100 | |
| 20260510132521 | 62 | 275 | 3.0 | 3.0 | 0.00 | 0.05 | 0.05 | 100 | |
| 20260510132021 | 62 | 185 | 0.0 | 4.0 | 0.00 | 0.05 | 0.05 | 100 | |
| 20260510131521 | 63 | 347 | 0.0 | 2.0 | 0.00 | 0.05 | 0.05 | 100 | |
| 20260510131021 | 64 | 288 | 0.0 | 0.0 | 0.00 | 0.05 | 0.05 | 100 | |
| 20260510130521 | 63 | 315 | 0.0 | 4.0 | 0.00 | 0.05 | 0.05 | 100 | |
| 20260510130021 | 61 | 357 | 0.0 | 3.0 | 0.00 | 0.05 | 0.05 | 100 | |
| 20260510125521 | 58 | 57 | 3.0 | 6.0 | 0.00 | 0.05 | 0.05 | 100 | |
| 20260510125021 | 63 | 4 | 0.0 | 4.0 | 0.00 | 0.05 | 0.05 | 100 | |
| 20260510124521 | 63 | 237 | 0.0 | 3.0 | 0.00 | 0.05 | 0.05 | 100 | |
| 20260510124021 | 61 | 21 | 0.0 | 2.0 | 0.00 | 0.05 | 0.05 | 100 | |
| 20260510123521 | 62 | 14 | 0.0 | 2.0 | 0.00 | 0.05 | 0.05 | 100 | |
| 20260510123021 | 62 | 23 | 0.0 | 2.0 | 0.00 | 0.05 | 0.05 | 100 | |
| 20260510122521 | 61 | 320 | 0.0 | 2.0 | 0.00 | 0.05 | 0.05 | 100 | |
| 20260510122021 | 59 | 355 | 0.0 | 4.0 | 0.00 | 0.05 | 0.05 | 100 | |
| 20260510121521 | 60 | 305 | 0.0 | 3.0 | 0.00 | 0.05 | 0.05 | 100 | |
| 20260510121021 | 60 | 305 | 0.0 | 0.0 | 0.00 | 0.05 | 0.05 | 100 | |
| 20260510120521 | 59 | 305 | 0.0 | 3.0 | 0.00 | 0.05 | 0.05 | 100 | |
| 20260510120021 | 59 | 262 | 0.0 | 1.0 | 0.00 | 0.05 | 0.05 | 100 | |
| 20260510115521 | 59 | 309 | 0.0 | 3.0 | 0.00 | 0.05 | 0.05 | 100 | |
| 20260510115021 | 58 | 344 | 0.0 | 4.0 | 0.00 | 0.05 | 0.05 | 100 | |
| 20260510114521 | 58 | 295 | 0.0 | 4.0 | 0.00 | 0.05 | 0.05 | 100 | |
| 20260510114021 | 57 | 4 | 0.0 | 0.0 | 0.00 | 0.05 | 0.05 | 100 | |
| 20260510113521 | 56 | 4 | 0.0 | 0.0 | 0.00 | 0.05 | 0.05 | 100 | |
| 20260510113021 | 55 | 4 | 0.0 | 0.0 | 0.00 | 0.05 | 0.05 | 100 | |
| 20260510112521 | 55 | 4 | 0.0 | 0.0 | 0.00 | 0.05 | 0.05 | 100 | |
| 20260510112021 | 53 | 4 | 0.0 | 0.0 | 0.00 | 0.05 | 0.05 | 100 | |
| 20260510111521 | 52 | 4 | 0.0 | 0.0 | 0.00 | 0.05 | 0.05 | 100 | |
| 20260510111021 | 50 | 4 | 0.0 | 0.0 | 0.00 | 0.05 | 0.05 | 100 | |
| 20260510110521 | 47 | 4 | 0.0 | 0.0 | 0.00 | 0.05 | 0.05 | 100 | |
| 20260510110021 | 45 | 4 | 0.0 | 0.0 | 0.00 | 0.05 | 0.05 | 100 | |
| 20260510105521 | 45 | 4 | 0.0 | 0.0 | 0.00 | 0.05 | 0.05 | 100 | |
| 20260510105021 | 45 | 4 | 0.0 | 0.0 | 0.00 | 0.05 | 0.05 | 100 | |
| 20260510104521 | 45 | 4 | 0.0 | 0.0 | 0.00 | 0.05 | 0.05 | 100 | |
| 20260510104021 | 45 | 4 | 0.0 | 0.0 | 0.00 | 0.05 | 0.05 | 100 | |
| 20260510103521 | 44 | 4 | 0.0 | 0.0 | 0.00 | 0.05 | 0.05 | 100 | |
| 20260510103021 | 44 | 4 | 0.0 | 0.0 | 0.00 | 0.05 | 0.05 | 100 | |
| 20260510102521 | 44 | 4 | 0.0 | 0.0 | 0.00 | 0.05 | 0.05 | 100 | |
| 20260510102021 | 44 | 4 | 0.0 | 0.0 | 0.00 | 0.05 | 0.05 | 100 | |
| 20260510101521 | 44 | 4 | 0.0 | 0.0 | 0.00 | 0.05 | 0.05 | 100 | |
| 20260510101021 | 44 | 4 | 0.0 | 0.0 | 0.00 | 0.05 | 0.05 | 100 | |
| 20260510100521 | 44 | 4 | 0.0 | 0.0 | 0.00 | 0.05 | 0.05 | 100 | |
| 20260510100021 | 45 | 4 | 0.0 | 0.0 | 0.00 | 0.05 | 0.05 | 100 | |
| 20260510095521 | 45 | 4 | 0.0 | 0.0 | 0.00 | 0.05 | 0.05 | 100 | |
| 20260510095021 | 45 | 4 | 0.0 | 0.0 | 0.00 | 0.05 | 0.05 | 100 | |
| 20260510094521 | 45 | 4 | 0.0 | 0.0 | 0.00 | 0.05 | 0.05 | 100 | |
| 20260510094021 | 45 | 4 | 0.0 | 0.0 | 0.00 | 0.05 | 0.05 | 100 | |
| 20260510093521 | 45 | 4 | 0.0 | 0.0 | 0.00 | 0.05 | 0.05 | 100 | |
| 20260510093021 | 46 | 4 | 0.0 | 0.0 | 0.00 | 0.05 | 0.05 | 100 | |
| 20260510092521 | 46 | 4 | 0.0 | 0.0 | 0.00 | 0.05 | 0.05 | 100 | |
| 20260510092021 | 46 | 4 | 0.0 | 0.0 | 0.00 | 0.05 | 0.05 | 100 | |
| 20260510091521 | 45 | 4 | 0.0 | 0.0 | 0.00 | 0.05 | 0.05 | 100 | |
| 20260510091021 | 46 | 4 | 0.0 | 0.0 | 0.00 | 0.05 | 0.05 | 100 | |
| 20260510090521 | 46 | 4 | 0.0 | 0.0 | 0.00 | 0.05 | 0.05 | 100 | |
| 20260510090021 | 47 | 4 | 0.0 | 0.0 | 0.00 | 0.05 | 0.05 | 100 | |
| 20260510085521 | 47 | 4 | 0.0 | 0.0 | 0.00 | 0.05 | 0.05 | 100 | |
| 20260510085021 | 46 | 4 | 0.0 | 4.0 | 0.00 | 0.05 | 0.05 | 100 | |
| 20260510084521 | 46 | 80 | 3.0 | 5.0 | 0.00 | 0.05 | 0.05 | 100 | |
| 20260510084021 | 46 | 73 | 2.0 | 5.0 | 0.00 | 0.05 | 0.05 | 100 | |
| 20260510083521 | 46 | 61 | 0.0 | 9.0 | 0.00 | 0.05 | 0.05 | 100 | |
| 20260510083021 | 46 | 73 | 2.0 | 7.0 | 0.00 | 0.05 | 0.05 | 100 | |
| 20260510082521 | 47 | 63 | 1.0 | 8.0 | 0.00 | 0.05 | 0.05 | 100 | |
| 20260510082021 | 46 | 66 | 3.0 | 10.0 | 0.00 | 0.05 | 0.05 | 100 | |
| 20260510081521 | 47 | 80 | 6.0 | 7.0 | 0.00 | 0.05 | 0.05 | 100 | |
| 20260510081022 | 47 | 52 | 3.0 | 9.0 | 0.00 | 0.05 | 0.05 | 100 | |
| 20260510080521 | 47 | 28 | 3.0 | 8.0 | 0.00 | 0.05 | 0.05 | 100 | |
| 20260510080022 | 47 | 64 | 6.0 | 12.0 | 0.00 | 0.05 | 0.05 | 100 | |
| 20260510075522 | 47 | 88 | 6.0 | 13.0 | 0.00 | 0.05 | 0.05 | 100 | |
| 20260510075022 | 47 | 66 | 9.0 | 13.0 | 0.00 | 0.05 | 0.05 | 100 | |
| 20260510074522 | 47 | 78 | 5.0 | 7.0 | 0.00 | 0.05 | 0.05 | 100 | |
| 20260510074022 | 47 | 71 | 5.0 | 9.0 | 0.00 | 0.05 | 0.05 | 100 | |
| 20260510073522 | 47 | 70 | 5.0 | 10.0 | 0.00 | 0.05 | 0.05 | 100 | |
| 20260510073022 | 47 | 66 | 5.0 | 14.0 | 0.00 | 0.05 | 0.05 | 100 | |
| 20260510072522 | 48 | 95 | 7.0 | 11.0 | 0.00 | 0.05 | 0.05 | 100 | |
| 20260510072022 | 48 | 84 | 2.0 | 11.0 | 0.00 | 0.05 | 0.05 | 100 | |
| 20260510071522 | 48 | 75 | 7.0 | 13.0 | 0.00 | 0.05 | 0.05 | 100 | |
| 20260510071022 | 48 | 81 | 9.0 | 16.0 | 0.00 | 0.05 | 0.05 | 100 | |
| 20260510070522 | 49 | 59 | 8.0 | 19.0 | 0.00 | 0.05 | 0.05 | 100 | |
| 20260510070022 | 49 | 54 | 15.0 | 21.0 | 0.00 | 0.05 | 0.05 | 100 | |
| 20260510065522 | 50 | 18 | 6.0 | 11.0 | 0.00 | 0.05 | 0.05 | 100 | |
| 20260510065022 | 51 | 77 | 5.0 | 5.0 | 0.00 | 0.05 | 0.05 | 100 | |
| 20260510064522 | 52 | 19 | 0.0 | 0.0 | 0.00 | 0.05 | 0.05 | 100 | |
| 20260510064022 | 52 | 19 | 0.0 | 0.0 | 0.00 | 0.05 | 0.05 | 100 | |
| 20260510063522 | 52 | 19 | 0.0 | 0.0 | 0.00 | 0.05 | 0.05 | 100 | |
| 20260510063022 | 52 | 19 | 0.0 | 0.0 | 0.00 | 0.05 | 0.05 | 100 | |
| 20260510062522 | 52 | 19 | 0.0 | 0.0 | 0.00 | 0.05 | 0.05 | 100 | |
| 20260510062022 | 53 | 19 | 0.0 | 0.0 | 0.00 | 0.05 | 0.05 | 100 | |
| 20260510061522 | 53 | 19 | 0.0 | 0.0 | 0.00 | 0.05 | 0.05 | 100 | |
| 20260510061022 | 53 | 19 | 0.0 | 0.0 | 0.00 | 0.05 | 0.05 | 100 | |
| 20260510060522 | 53 | 19 | 0.0 | 6.0 | 0.00 | 0.05 | 0.05 | 100 | |
| 20260510060022 | 53 | 63 | 0.0 | 0.0 | 0.00 | 0.05 | 0.05 | 100 | |
| 20260510055522 | 53 | 63 | 0.0 | 2.0 | 0.00 | 0.05 | 0.05 | 100 | |
| 20260510055022 | 54 | 21 | 0.0 | 4.0 | 0.00 | 0.05 | 0.05 | 100 | |
| 20260510054522 | 54 | 15 | 0.0 | 3.0 | 0.00 | 0.05 | 0.05 | 100 | |
| 20260510054022 | 54 | 42 | 0.0 | 2.0 | 0.00 | 0.05 | 0.05 | 100 | |
| 20260510053522 | 54 | 97 | 2.0 | 3.0 | 0.00 | 0.05 | 0.05 | 100 | |
| 20260510053022 | 54 | 29 | 0.0 | 4.0 | 0.00 | 0.05 | 0.05 | 100 | |
| 20260510052522 | 54 | 68 | 2.0 | 6.0 | 0.00 | 0.05 | 0.05 | 100 | |
| 20260510052022 | 54 | 57 | 0.0 | 8.0 | 0.00 | 0.05 | 0.05 | 100 | |
| 20260510051522 | 54 | 63 | 0.0 | 6.0 | 0.00 | 0.05 | 0.05 | 100 | |
| 20260510051022 | 54 | 88 | 3.0 | 3.0 | 0.00 | 0.05 | 0.05 | 100 | |
| 20260510050522 | 54 | 80 | 2.0 | 5.0 | 0.00 | 0.05 | 0.05 | 100 | |
| 20260510050022 | 54 | 59 | 2.0 | 6.0 | 0.00 | 0.05 | 0.05 | 100 | |
| 20260510045522 | 55 | 33 | 0.0 | 4.0 | 0.00 | 0.05 | 0.05 | 100 | |
| 20260510045022 | 55 | 98 | 2.0 | 4.0 | 0.00 | 0.05 | 0.05 | 100 | |
| 20260510044522 | 55 | 46 | 1.0 | 3.0 | 0.00 | 0.05 | 0.05 | 100 | |
| 20260510044022 | 55 | 28 | 0.0 | 5.0 | 0.00 | 0.05 | 0.05 | 100 | |
| 20260510043522 | 55 | 63 | 1.0 | 8.0 | 0.00 | 0.05 | 0.05 | 100 | |
| 20260510043022 | 55 | 95 | 5.0 | 5.0 | 0.00 | 0.05 | 0.05 | 100 | |
| 20260510042522 | 55 | 60 | 2.0 | 11.0 | 0.00 | 0.05 | 0.05 | 100 | |
| 20260510042022 | 56 | 70 | 3.0 | 5.0 | 0.00 | 0.05 | 0.05 | 100 | |
| 20260510041522 | 56 | 85 | 0.0 | 5.0 | 0.00 | 0.05 | 0.05 | 100 | |
| 20260510041022 | 57 | 50 | 4.0 | 7.0 | 0.00 | 0.05 | 0.05 | 100 | |
| 20260510040522 | 57 | 49 | 6.0 | 10.0 | 0.00 | 0.05 | 0.05 | 100 | |
| 20260510040022 | 57 | 30 | 4.0 | 8.0 | 0.00 | 0.05 | 0.05 | 100 | |
| 20260510035522 | 58 | 54 | 3.0 | 12.0 | 0.00 | 0.05 | 0.05 | 100 | |
| 20260510035022 | 58 | 70 | 10.0 | 19.0 | 0.00 | 0.05 | 0.05 | 100 | |
| 20260510034522 | 59 | 64 | 14.0 | 14.0 | 0.00 | 0.05 | 0.05 | 100 | |
| 20260510034022 | 59 | 21 | 0.0 | 2.0 | 0.00 | 0.05 | 0.05 | 100 | |
| 20260510033522 | 59 | 355 | 0.0 | 2.0 | 0.00 | 0.05 | 0.05 | 100 | |
| 20260510033022 | 60 | 56 | 0.0 | 7.0 | 0.00 | 0.05 | 0.05 | 100 | |
| 20260510032522 | 60 | 81 | 5.0 | 5.0 | 0.00 | 0.05 | 0.05 | 100 | |
| 20260510032022 | 60 | 94 | 0.0 | 7.0 | 0.00 | 0.05 | 0.05 | 100 | |
| 20260510031522 | 60 | 46 | 0.0 | 3.0 | 0.00 | 0.05 | 0.05 | 100 | |
| 20260510031022 | 60 | 54 | 1.0 | 8.0 | 0.00 | 0.05 | 0.05 | 100 | |
| 20260510030522 | 61 | 56 | 3.0 | 10.0 | 0.00 | 0.05 | 0.05 | 100 | |
| 20260510030022 | 61 | 35 | 3.0 | 9.0 | 0.00 | 0.05 | 0.05 | 100 | |
| 20260510025522 | 61 | 40 | 3.0 | 6.0 | 0.00 | 0.05 | 0.05 | 100 | |
| 20260510025022 | 61 | 47 | 0.0 | 5.0 | 0.00 | 0.05 | 0.05 | 100 | |
| 20260510024522 | 61 | 78 | 0.0 | 4.0 | 0.00 | 0.05 | 0.05 | 100 | |
| 20260510024022 | 61 | 338 | 2.0 | 2.0 | 0.00 | 0.05 | 0.05 | 100 | |
| 20260510023522 | 61 | 315 | 0.0 | 2.0 | 0.00 | 0.05 | 0.05 | 100 | |
| 20260510023022 | 61 | 18 | 0.0 | 2.0 | 0.00 | 0.05 | 0.05 | 100 | |
| 20260510022522 | 62 | 295 | 0.0 | 2.0 | 0.00 | 0.05 | 0.05 | 100 | |
| 20260510022022 | 62 | 295 | 0.0 | 2.0 | 0.00 | 0.05 | 0.05 | 100 | |
| 20260510021522 | 62 | 9 | 0.0 | 5.0 | 0.00 | 0.05 | 0.05 | 100 | |
| 20260510021022 | 62 | 337 | 0.0 | 2.0 | 0.00 | 0.05 | 0.05 | 100 | |
| 20260510020522 | 61 | 309 | 0.0 | 4.0 | 0.00 | 0.05 | 0.05 | 100 | |
| 20260510020022 | 61 | 306 | 0.0 | 0.0 | 0.00 | 0.05 | 0.05 | 100 | |
| 20260510015522 | 61 | 306 | 0.0 | 0.0 | 0.00 | 0.05 | 0.05 | 100 | |
| 20260510015022 | 61 | 306 | 0.0 | 0.0 | 0.00 | 0.05 | 0.05 | 100 | |
| 20260510014522 | 62 | 306 | 0.0 | 0.0 | 0.00 | 0.05 | 0.05 | 100 | |
| 20260510014022 | 63 | 306 | 0.0 | 0.0 | 0.00 | 0.05 | 0.05 | 100 | |
| 20260510013522 | 63 | 306 | 0.0 | 0.0 | 0.00 | 0.05 | 0.05 | 100 | |
| 20260510013022 | 63 | 306 | 0.0 | 0.0 | 0.00 | 0.05 | 0.05 | 100 | |
| 20260510012522 | 63 | 306 | 0.0 | 4.0 | 0.00 | 0.05 | 0.05 | 100 | |
| 20260510012022 | 63 | 262 | 0.0 | 0.0 | 0.00 | 0.05 | 0.05 | 100 | |
| 20260510011522 | 63 | 262 | 0.0 | 0.0 | 0.00 | 0.05 | 0.05 | 100 | |
| 20260510011022 | 63 | 262 | 0.0 | 3.0 | 0.00 | 0.05 | 0.05 | 100 | |
| 20260510010522 | 63 | 300 | 0.0 | 0.0 | 0.00 | 0.05 | 0.05 | 100 | |
| 20260510010022 | 64 | 300 | 0.0 | 1.0 | 0.00 | 0.05 | 0.05 | 100 | |
| 20260510005522 | 64 | 296 | 0.0 | 0.0 | 0.00 | 0.05 | 0.05 | 100 | |
| 20260510005022 | 64 | 296 | 0.0 | 3.0 | 0.00 | 0.05 | 0.05 | 100 | |
| 20260510004522 | 65 | 264 | 0.0 | 3.0 | 0.00 | 0.05 | 0.05 | 100 | |
| 20260510004022 | 65 | 247 | 0.0 | 10.0 | 0.00 | 0.05 | 0.05 | 100 | |
| 20260510003522 | 65 | 264 | 1.0 | 5.0 | 0.00 | 0.05 | 0.05 | 100 | |
| 20260510003022 | 65 | 298 | 0.0 | 7.0 | 0.00 | 0.05 | 0.05 | 100 | |
| 20260510002522 | 66 | 244 | 2.0 | 5.0 | 0.00 | 0.05 | 0.05 | 100 | |
| 20260510002022 | 66 | 225 | 0.0 | 5.0 | 0.00 | 0.05 | 0.05 | 100 | |
| 20260510001522 | 66 | 302 | 0.0 | 7.0 | 0.00 | 0.05 | 0.05 | 100 | |
| 20260510001022 | 67 | 260 | 2.0 | 12.0 | 0.00 | 0.05 | 0.05 | 100 | |
| 20260510000522 | 67 | 313 | 2.0 | 10.0 | 0.00 | 0.05 | 0.05 | 100 | |
| 20260510000022 | 67 | 288 | 6.0 | 16.0 | 0.00 | 0.05 | 0.05 | 100 | |
| 20260509235522 | 67 | 272 | 5.0 | 9.0 | 0.00 | 0.05 | 0.05 | 100 | |
| 20260509235022 | 67 | 292 | 4.0 | 11.0 | 0.00 | 0.05 | 0.05 | 100 | |
| 20260509234522 | 67 | 347 | 2.0 | 13.0 | 0.00 | 0.05 | 0.05 | 100 | |
| 20260509234022 | 68 | 296 | 1.0 | 6.0 | 0.00 | 0.05 | 0.05 | 100 | |
| 20260509233522 | 68 | 310 | 1.0 | 9.0 | 0.00 | 0.05 | 0.05 | 100 | |
| 20260509233023 | 68 | 313 | 4.0 | 8.0 | 0.00 | 0.05 | 0.05 | 100 | |
| 20260509232523 | 68 | 334 | 1.0 | 5.0 | 0.00 | 0.05 | 0.05 | 100 | |
| 20260509232023 | 68 | 270 | 5.0 | 13.0 | 0.00 | 0.05 | 0.05 | 100 | |
| 20260509231523 | 68 | 319 | 2.0 | 10.0 | 0.00 | 0.05 | 0.05 | 100 | |
| 20260509231023 | 68 | 253 | 10.0 | 12.0 | 0.00 | 0.05 | 0.05 | 100 | |
| 20260509230523 | 68 | 316 | 5.0 | 19.0 | 0.00 | 0.05 | 0.05 | 100 | |
| 20260509230023 | 69 | 288 | 2.0 | 18.0 | 0.00 | 0.05 | 0.05 | 100 | |
| 20260509225523 | 69 | 319 | 5.0 | 13.0 | 0.00 | 0.05 | 0.05 | 100 | |
| 20260509225023 | 70 | 299 | 4.0 | 14.0 | 0.00 | 0.05 | 0.05 | 100 | |
| 20260509224523 | 70 | 298 | 1.0 | 20.0 | 0.00 | 0.05 | 0.05 | 100 | |
| 20260509224023 | 70 | 284 | 6.0 | 27.0 | 0.00 | 0.05 | 0.05 | 100 | |
| 20260509223523 | 70 | 239 | 6.0 | 20.0 | 0.01 | 0.05 | 0.05 | 100 | |
| 20260509223023 | 69 | 323 | 2.0 | 27.0 | 0.01 | 0.05 | 0.05 | 100 | |
| 20260509222523 | 70 | 260 | 1.0 | 20.0 | 0.01 | 0.05 | 0.05 | 100 | |
| 20260509222023 | 70 | 234 | 4.0 | 21.0 | 0.01 | 0.05 | 0.05 | 100 | |
| 20260509221523 | 70 | 264 | 8.0 | 9.0 | 0.01 | 0.05 | 0.05 | 100 | |
| 20260509221023 | 70 | 298 | 1.0 | 13.0 | 0.01 | 0.05 | 0.05 | 100 | |
| 20260509220523 | 70 | 264 | 11.0 | 18.0 | 0.02 | 0.05 | 0.05 | 100 | |
| 20260509220023 | 70 | 322 | 0.0 | 15.0 | 0.02 | 0.05 | 0.05 | 100 | |
| 20260509215523 | 71 | 284 | 2.0 | 17.0 | 0.02 | 0.05 | 0.05 | 100 | |
| 20260509215023 | 71 | 344 | 2.0 | 18.0 | 0.02 | 0.05 | 0.05 | 100 | |
| 20260509214523 | 70 | 260 | 0.0 | 9.0 | 0.02 | 0.05 | 0.05 | 100 | |
| 20260509214023 | 71 | 278 | 7.0 | 10.0 | 0.03 | 0.05 | 0.05 | 100 | |
| 20260509213523 | 70 | 312 | 0.0 | 17.0 | 0.02 | 0.04 | 0.04 | 100 | |
| 20260509213023 | 70 | 234 | 7.0 | 9.0 | 0.02 | 0.04 | 0.04 | 100 | |
| 20260509212523 | 69 | 254 | 0.0 | 9.0 | 0.02 | 0.04 | 0.04 | 100 | |
| 20260509212023 | 70 | 307 | 3.0 | 13.0 | 0.03 | 0.04 | 0.04 | 100 | |
| 20260509211523 | 69 | 358 | 1.0 | 12.0 | 0.03 | 0.04 | 0.04 | 100 | |
| 20260509211023 | 69 | 254 | 8.0 | 10.0 | 0.03 | 0.04 | 0.04 | 100 | |
| 20260509210523 | 69 | 324 | 4.0 | 11.0 | 0.02 | 0.03 | 0.03 | 100 | |
| 20260509210023 | 69 | 244 | 2.0 | 8.0 | 0.03 | 0.03 | 0.03 | 100 | |
| 20260509205523 | 68 | 307 | 2.0 | 9.0 | 0.03 | 0.03 | 0.03 | 100 | |
| 20260509205023 | 68 | 278 | 2.0 | 5.0 | 0.03 | 0.03 | 0.03 | 100 | |
| 20260509204523 | 67 | 274 | 3.0 | 6.0 | 0.03 | 0.03 | 0.03 | 100 | |
| 20260509204023 | 65 | 261 | 1.0 | 5.0 | 0.02 | 0.02 | 0.02 | 100 | |
| 20260509203523 | 66 | 327 | 0.0 | 3.0 | 0.02 | 0.02 | 0.02 | 100 | |
| 20260509203023 | 65 | 272 | 0.0 | 5.0 | 0.02 | 0.02 | 0.02 | 100 | |
| 20260509202523 | 65 | 271 | 1.0 | 6.0 | 0.02 | 0.02 | 0.02 | 100 | |
| 20260509202023 | 65 | 260 | 0.0 | 2.0 | 0.01 | 0.01 | 0.01 | 100 | |
| 20260509201523 | 64 | 315 | 1.0 | 3.0 | 0.01 | 0.01 | 0.01 | 100 | |
| 20260509201023 | 62 | 264 | 3.0 | 3.0 | 0.01 | 0.01 | 0.01 | 100 | |
| 20260509200523 | 61 | 226 | 1.0 | 8.0 | 0.01 | 0.01 | 0.01 | 100 | |
| 20260509200023 | 62 | 66 | 5.0 | 8.0 | 0.00 | 0.00 | 0.00 | 100 | |
| 20260509195523 | 63 | 244 | 6.0 | 7.0 | 0.00 | 0.00 | 0.00 | 100 | |
| 20260509195023 | 63 | 261 | 2.0 | 12.0 | 0.00 | 0.00 | 0.00 | 100 | |
| 20260509194523 | 65 | 212 | 0.0 | 7.0 | 0.00 | 0.00 | 0.00 | 100 | |
| 20260509194023 | 66 | 291 | 1.0 | 12.0 | 0.00 | 0.00 | 0.00 | 100 | |
| 20260509193523 | 67 | 279 | 7.0 | 11.0 | 0.00 | 0.00 | 0.00 | 100 | |
| 20260509193023 | 67 | 292 | 4.0 | 9.0 | 0.00 | 0.00 | 0.00 | 100 | |
| 20260509192523 | 66 | 296 | 2.0 | 17.0 | 0.00 | 0.00 | 0.00 | 100 | |
| 20260509192023 | 67 | 271 | 15.0 | 26.0 | 0.00 | 0.00 | 0.00 | 100 | |
| 20260509191523 | 68 | 268 | 11.0 | 11.0 | 0.00 | 0.00 | 0.00 | 100 | |
| 20260509191023 | 68 | 222 | 2.0 | 11.0 | 0.00 | 0.00 | 0.00 | 100 | |
| 20260509190523 | 70 | 223 | 3.0 | 9.0 | 0.00 | 0.00 | 0.00 | 100 |